Location: Strohbehn Observatory
(42.4649°N, 93.8239°W)
Time: 17:18:21
(UTC-05:00)

SL-16 R/B - Visible Passes

Search period start: 29 May 2015 00:00
Search period end: 08 June 2015 00:00
Orbit: 842 x 846 km, 71.0° (Epoch: 29 May)

Date Brightness Start Highest point End Pass type
(mag) Time Alt. Az. Time Alt. Az. Time Alt. Az.
29 May 5.3 04:57:52 10° N 05:02:00 21° NE 05:06:17 10° E visible
29 May 3.9 21:33:47 10° SW 21:39:04 38° WNW 21:44:20 10° N visible
30 May 5.3 04:43:42 10° N 04:47:46 20° NE 04:51:58 10° E visible
30 May 3.9 21:19:31 10° SW 21:24:50 40° WNW 21:30:09 10° N visible
31 May 5.3 04:29:33 10° N 04:33:32 20° NE 04:37:39 10° E visible
01 Jun 5.2 04:15:23 10° N 04:19:17 19° NE 04:23:20 10° E visible
02 Jun 5.2 04:01:14 10° N 04:05:03 18° NE 04:09:01 10° E visible
03 Jun 5.2 03:47:05 10° N 03:50:48 18° NE 03:54:41 10° E visible
04 Jun 5.1 03:32:56 10° N 03:36:34 17° NE 03:40:22 10° E visible
05 Jun 5.1 03:18:48 10° N 03:22:19 17° NE 03:26:02 10° E visible
05 Jun 2.3 05:01:37 10° NNW 05:07:19 87° WSW 05:13:00 10° SSE visible
06 Jun 5.1 03:04:39 10° N 03:08:05 16° NE 03:11:42 10° E visible
06 Jun 2.3 04:47:24 10° NNW 04:53:07 90° W 04:58:48 10° SSE visible
07 Jun 5.0 02:50:32 10° N 02:53:51 16° NE 02:57:21 10° E visible
07 Jun 2.3 04:33:13 10° NNW 04:38:55 87° ENE 04:44:36 10° SSE visible
